| 4/27/2026 | Private Advisor Group LLC | 22,035 | $169K | 0.0% | +61.1% | 0.000% | |
| 4/25/2026 | Northwest Financial Advisors | 46,461 | $357K | 0.7% | +5.9% | 0.000% | |
| 4/23/2026 | Traub Capital Management LLC | 86,839 | $667K | 0.7% | -8.4% | 0.000% | |
| 4/18/2026 | Riverbridge Partners LLC | 48,234 | $370K | 0.0% | +18.0% | 0.000% | |
| 2/19/2026 | Invesco Ltd. | 301,003 | $2.31M | 0.0% | +13.0% | 0.000% | |
| 2/18/2026 | Rivernorth Capital Management LLC | 1,180,537 | $9.07M | 0.4% | -3.0% | 0.000% | |
| 2/18/2026 | IHT Wealth Management LLC | 23,801 | $183K | 0.0% | +9.7% | 0.000% | |
| 2/18/2026 | 1607 Capital Partners LLC | 437,801 | $3.36M | 0.2% | -15.8% | 0.000% | |
| 2/17/2026 | Guggenheim Capital LLC | 305,465 | $2.35M | 0.0% | -4.9% | 0.000% | |
| 2/17/2026 | Cetera Investment Advisers | 177,428 | $1.36M | 0.0% | +1.5% | 0.000% | |
Get the Latest News and Ratings for SBI and Related Stocks Enter your email address below to receive the latest news and analysts' ratings for Western Asset Intermediate Muni Fund and its competitors with MarketBeat's FREE daily newsletter.
|
| 2/17/2026 | Osaic Holdings Inc. | 35,565 | $273K | 0.0% | +42.3% | 0.000% | |
| 2/17/2026 | Royal Bank of Canada | 62,781 | $482K | 0.0% | +3.6% | 0.000% | |
| 2/13/2026 | Wells Fargo & Company MN | 399,208 | $3.07M | 0.0% | +19.5% | 0.000% | |
| 2/13/2026 | Concorde Asset Management LLC | 56,178 | $431K | 0.2% | +9.5% | 0.000% | |
| 2/12/2026 | Commonwealth Equity Services LLC | 188,362 | $1.45M | 0.0% | -7.2% | 0.000% | |
| 2/12/2026 | Carson Advisory Inc. | 170,597 | $1.31M | 0.7% | -7.4% | 0.000% | |
| 2/11/2026 | Janney Montgomery Scott LLC | 19,850 | $152K | 0.0% | +12.5% | 0.000% | |
| 2/11/2026 | LPL Financial LLC | 190,855 | $1.47M | 0.0% | +11.9% | 0.000% | |
| 2/11/2026 | Closed End Fund Advisors Inc. | 17,477 | $134K | 0.1% | N/A | 0.000% | |
| 2/6/2026 | HighTower Advisors LLC | 14,653 | $113K | 0.0% | -24.3% | 0.000% | |
| 2/4/2026 | Rock Point Advisors LLC | 70,925 | $545K | 0.1% | +11.0% | 0.000% | |
| 2/2/2026 | Wolverine Asset Management LLC | 25,480 | $196K | 0.0% | N/A | 0.000% | |
| 1/29/2026 | Traub Capital Management LLC | 94,791 | $728K | 0.7% | -9.4% | 0.000% | |
| 1/26/2026 | Whittier Trust Co. of Nevada Inc. | 81,242 | $629K | 0.0% | -16.2% | 0.000% | |
| 1/26/2026 | Whittier Trust Co. | 41,343 | $320K | 0.0% | -3.7% | 0.000% | |
| 1/26/2026 | Northwest Financial Advisors | 43,870 | $337K | 0.7% | +225.0% | 0.000% | |
| 1/5/2026 | Noble Wealth Management PBC | 34,491 | $265K | 0.1% | -14.5% | 0.000% | |
| 11/17/2025 | Whitebox Advisors LLC | 204,801 | $1.62M | 0.0% | -18.9% | 0.000% | |
| 11/17/2025 | 1607 Capital Partners LLC | 519,897 | $4.11M | 0.3% | -12.5% | 0.000% | |
| 11/13/2025 | Tortoise Investment Management LLC | 24,475 | $194K | 0.0% | -17.0% | 0.000% | |
| 11/13/2025 | Private Advisor Group LLC | 11,553 | $91K | 0.0% | N/A | 0.000% | |
| 11/6/2025 | Carson Advisory Inc. | 184,197 | $1.46M | 0.8% | -5.5% | 0.000% | |
| 11/6/2025 | Whipplewood Advisors LLC | 89,424 | $707K | 0.5% | +5.1% | 0.000% | |
| 10/31/2025 | Castle Wealth Management LLC | 32,451 | $258K | 0.1% | N/A | 0.000% | |
| 10/30/2025 | Traub Capital Management LLC | 104,579 | $827K | 0.8% | -19.9% | 0.000% | |
| 10/14/2025 | Riverbridge Partners LLC | 41,033 | $325K | 0.0% | N/A | 0.000% | |
| 9/29/2025 | Summit Financial Wealth Advisors LLC | 46,556 | $350K | 0.1% | -3.7% | 0.000% | |
| 9/4/2025 | Osaic Holdings Inc. | 18,534 | $139K | 0.0% | -8.9% | 0.000% | |
| 8/15/2025 | Captrust Financial Advisors | 12,711 | $96K | 0.0% | N/A | 0.000% | |
| 8/15/2025 | IHT Wealth Management LLC | 20,328 | $153K | 0.0% | +25.4% | 0.000% | |
|
| 8/14/2025 | Whitebox Advisors LLC | 252,626 | $1.90M | 0.0% | -6.9% | 0.000% | |
| 8/14/2025 | Raymond James Financial Inc. | 189,929 | $1.43M | 0.0% | +6.6% | 0.000% | |
| 8/13/2025 | Guggenheim Capital LLC | 332,781 | $2.50M | 0.0% | -2.1% | 0.000% | |
| 8/13/2025 | Invesco Ltd. | 205,096 | $1.54M | 0.0% | +55.5% | 0.000% | |
| 8/12/2025 | Horizon Kinetics Asset Management LLC | 11,334 | $85K | 0.0% | N/A | 0.000% | |
| 8/11/2025 | Traub Capital Management LLC | 130,531 | $982K | 0.9% | N/A | 0.000% | |
| 8/5/2025 | Carson Advisory Inc. | 194,897 | $1.47M | 0.9% | -1.5% | 0.000% | |
| 8/4/2025 | Wolverine Asset Management LLC | 43,898 | $330K | 0.0% | +29.3% | 0.000% | |
| 7/30/2025 | Whittier Trust Co. | 42,850 | $322K | 0.0% | -20.8% | 0.000% | |
| 7/17/2025 | Melfa Wealth Management Inc. | 46,347 | $349K | 0.2% | +34.4% | 0.000% | |
| 5/16/2025 | Concorde Asset Management LLC | 11,840 | $90K | 0.0% | N/A | 0.000% | |
| 5/16/2025 | 1607 Capital Partners LLC | 609,573 | $4.76M | 0.4% | -2.9% | 0.000% | |
| 5/15/2025 | Royal Bank of Canada | 30,278 | $236K | 0.0% | +13.5% | 0.000% | |
| 5/15/2025 | Tortoise Investment Management LLC | 29,475 | $230K | 0.0% | -30.3% | 0.000% | |
| 5/13/2025 | Sit Investment Associates Inc. | 628,221 | $4.90M | 0.1% | -46.8% | 0.000% | |
| 5/13/2025 | HighTower Advisors LLC | 19,804 | $154K | 0.0% | -12.4% | 0.000% | |
| 5/12/2025 | Invesco Ltd. | 131,915 | $1.03M | 0.0% | +69.4% | 0.000% | |
| 5/12/2025 | Wolverine Asset Management LLC | 33,955 | $265K | 0.0% | +541.6% | 0.000% | |
| 5/8/2025 | Moors & Cabot Inc. | 11,216 | $87K | 0.0% | N/A | 0.000% | |
| 5/6/2025 | Avantax Advisory Services Inc. | 157,567 | $1.23M | 0.0% | +1.3% | 0.000% | |
| 5/2/2025 | Carson Advisory Inc. | 197,797 | $1.54M | 1.0% | +13.2% | 0.000% | |
| 5/2/2025 | Whittier Trust Co. of Nevada Inc. | 110,475 | $862K | 0.0% | -5.1% | 0.000% | |
| 5/2/2025 | Whittier Trust Co. | 54,079 | $422K | 0.0% | -3.0% | 0.000% | |
| 4/15/2025 | Noble Wealth Management PBC | 73,335 | $572K | 0.4% | +3.5% | 0.000% | |
| 4/14/2025 | Farther Finance Advisors LLC | 3,600 | $28K | 0.0% | N/A | 0.000% | |
| 4/11/2025 | Northwest Financial Advisors | 13,500 | $105K | 0.1% | N/A | 0.000% | |
| 2/17/2025 | Waverly Advisors LLC | 86,525 | $670K | 0.0% | +4.6% | 0.000% | |
| 2/17/2025 | Logan Stone Capital LLC | 15,728 | $122K | 0.0% | -88.9% | 0.000% | |
| 2/14/2025 | Whitebox Advisors LLC | 271,438 | $2.10M | 0.1% | +58.3% | 0.000% | |
| 2/13/2025 | Guggenheim Capital LLC | 345,242 | $2.67M | 0.0% | +182.1% | 0.000% | |
| 2/13/2025 | Carson Advisory Inc. | 174,753 | $1.35M | 0.9% | +95.5% | 0.000% | |
| 2/13/2025 | Raymond James Financial Inc. | 169,666 | $1.31M | 0.0% | N/A | 0.000% | |
| 2/13/2025 | Invesco Ltd. | 77,850 | $603K | 0.0% | N/A | 0.000% | |
| 2/13/2025 | Sit Investment Associates Inc. | 1,181,590 | $9.15M | 0.2% | -7.8% | 0.000% | |
| 2/13/2025 | Wells Fargo & Company MN | 44,824 | $347K | 0.0% | +8.3% | 0.000% | |
| 2/12/2025 | PKS Advisory Services LLC | 14,000 | $108K | 0.0% | N/A | 0.000% | |
| 2/11/2025 | Whittier Trust Co. of Nevada Inc. | 116,375 | $901K | 0.0% | -6.3% | 0.000% | |
| 2/10/2025 | Commonwealth Equity Services LLC | 194,490 | $1.51M | 0.0% | -1.0% | 0.000% | |
| 2/10/2025 | Avantax Advisory Services Inc. | 155,610 | $1.20M | 0.0% | +2.7% | 0.000% | |
| 2/7/2025 | HighTower Advisors LLC | 22,615 | $175K | 0.0% | +82.7% | 0.000% | |
| 2/7/2025 | Tortoise Investment Management LLC | 42,295 | $327K | 0.0% | -34.8% | 0.000% | |
| 2/7/2025 | Independent Advisor Alliance | 50,251 | $389K | 0.0% | N/A | 0.000% | |
| 2/7/2025 | Blue Bell Private Wealth Management LLC | 17,527 | $136K | 0.0% | -21.1% | 0.000% | |
| 2/6/2025 | Raymond James Financial Inc. | 169,666 | $1.31M | 0.0% | N/A | 0.000% | |
| 2/5/2025 | Noble Wealth Management PBC | 70,835 | $548K | 0.4% | N/A | 0.000% | |
| 2/3/2025 | Wolverine Asset Management LLC | 5,292 | $41K | 0.0% | -89.9% | 0.000% | |
| 1/29/2025 | Allspring Global Investments Holdings LLC | 171,558 | $1.33M | 0.0% | -20.6% | 0.000% | |
| 1/21/2025 | LexAurum Advisors LLC | 35,000 | $271K | 0.1% | N/A | 0.000% | |
| 1/15/2025 | Sard Wealth Management Group LLC | 11,892 | $92K | 0.1% | -20.4% | 0.000% | |
| 12/3/2024 | Rivernorth Capital Management LLC | 1,674,840 | $13.73M | 0.7% | +2.8% | 0.000% | |
|
| 11/21/2024 | SkyView Investment Advisors LLC | 14,058 | $115K | 0.0% | -26.3% | 0.000% | |
| 11/15/2024 | Whitebox Advisors LLC | 171,438 | $1.41M | 0.0% | +1.2% | 0.000% | |
| 11/15/2024 | Rivernorth Capital Management LLC | 1,631,989 | $13.38M | 0.7% | +0.2% | 0.000% | |
| 11/15/2024 | HighTower Advisors LLC | 12,375 | $101K | 0.0% | +22.8% | 0.000% | |
| 11/7/2024 | Pathstone Holdings LLC | 270,171 | $2.22M | 0.0% | +23.6% | 0.000% | |
| 11/4/2024 | Wolverine Asset Management LLC | 52,493 | $430K | 0.0% | +66.1% | 0.000% | |
| 11/1/2024 | Carson Advisory Inc. | 89,381 | $733K | 0.5% | N/A | 0.000% | |
| 10/28/2024 | Stephens Inc. AR | 24,750 | $203K | 0.0% | N/A | 0.000% | |
| 10/21/2024 | Whittier Trust Co. of Nevada Inc. | 124,188 | $1.02M | 0.0% | -6.7% | 0.000% | |
| 10/21/2024 | Whittier Trust Co. | 55,684 | $457K | 0.0% | -22.5% | 0.000% | |